Dubuque, IA

5:17 AM CDT on August 20, 2019 (GMT -0500)
Dubuque Regional

Weather History for KDBQ - June, 2019

Change the Weather History Date:

Tuesday, June 11, 2019

  Actual Average Record
Temperature  
Mean Temperature 62 °F 67 °F  
Max Temperature 74 °F 78 °F 93 °F (1933)
Min Temperature 51 °F 57 °F 36 °F (1972)
Degree Days  
Heating Degree Days 2 2  
Month to date heating degree days 7 26  
Since 1 June heating degree days 7 26  
Since 1 July heating degree days 7409 7072  
Cooling Degree Days 0 4  
Month to date cooling degree days 38 33  
Year to date cooling degree days 64 70  
Since 1 June cooling degree days 38 33  
Growing Degree Days 12 (Base 50)    
Moisture  
Dew Point 49 °F    
Average Humidity 61    
Maximum Humidity 93    
Minimum Humidity 40    
Precipitation  
Precipitation 0.05 in 0.15 in 2.51 in (2015)
Month to date precipitation 2.12 1.65  
Year to date precipitation 19.36 14.52  
Snow  
Snow 0.00 in 0.00 in - ()
Month to date snowfall 0.0 0.0  
Since 1 June snowfall 0.0 0.0  
Since 1 July snowfall 55.2 41.9  
Snow Depth 0.00 in    
Sea Level Pressure  
Sea Level Pressure 30.11 in    
Wind  
Wind Speed 6 mph ()    
Max Wind Speed 17 mph    
Max Gust Speed 22 mph    
Visibility 9.8 miles    
Events Rain    
T = Trace of Precipitation, MM = Missing Value Source: Averaged Metar Reports

Daily Weather History Graph

Daily Weather History Graph

Search for Another Location

Airport or City:

Astronomy

Jun. 11, 2019 Rise Set
Actual Time 5:25 AM CDT 8:39 PM CDT
Civil Twilight 4:50 AM CDT 9:14 PM CDT
Nautical Twilight 4:06 AM CDT 9:59 PM CDT
Astronomical Twilight 3:12 AM CDT 10:53 PM CDT
Moon 2:31 PM CDT (6/11) 2:18 AM CDT (6/11)
Length of Visible Light 16h 23m
Length of Day
15h 14m
Waxing Gibbous, 66% of the Moon is Illuminated
Jun 11
Waxing Gibbous
Jun 17
Full
Jun 25
Last Quarter
Jul 2
New
Jul 9
First Quarter

Hourly Weather History & Observations

Time (CDT) Temp. Dew Point Humidity Pressure Visibility Wind Dir Wind Speed Gust Speed Precip Events Conditions
12:53 AM 59.0 °F 46.0 °F 62% 30.15 in 10.0 mi South 4.6 mph - N/A   Clear
1:53 AM 55.9 °F 46.9 °F 72% 30.15 in 10.0 mi SSW 3.5 mph - N/A   Clear
2:53 AM 55.0 °F 45.0 °F 69% 30.15 in 10.0 mi SSW 3.5 mph - N/A   Clear
3:53 AM 54.0 °F 46.0 °F 75% 30.15 in 10.0 mi SSW 3.5 mph - N/A   Clear
4:53 AM 52.0 °F 45.0 °F 77% 30.16 in 10.0 mi SSW 4.6 mph - N/A   Clear
5:53 AM 53.1 °F 46.0 °F 77% 30.16 in 10.0 mi South 4.6 mph - N/A   Clear
6:53 AM 55.9 °F 48.9 °F 77% 30.17 in 10.0 mi SSW 4.6 mph - N/A   Clear
7:53 AM 64.0 °F 48.9 °F 58% 30.17 in 10.0 mi SSW 4.6 mph - N/A   Clear
8:53 AM 68.0 °F 48.9 °F 50% 30.16 in 10.0 mi SSW 6.9 mph - N/A   Clear
9:53 AM 69.1 °F 51.1 °F 53% 30.15 in 10.0 mi SSW 8.1 mph - N/A   Clear
10:53 AM 73.0 °F 48.9 °F 42% 30.14 in 10.0 mi SW 10.4 mph - N/A   Clear
11:53 AM 72.0 °F 46.0 °F 40% 30.14 in 10.0 mi WSW 11.5 mph - N/A   Clear
12:53 PM 70.0 °F 46.0 °F 42% 30.15 in 10.0 mi West 13.8 mph - N/A   Overcast
1:53 PM 72.0 °F 48.9 °F 44% 30.12 in 10.0 mi North 12.7 mph 20.7 mph N/A   Clear
2:53 PM 72.0 °F 48.9 °F 44% 30.10 in 10.0 mi North 12.7 mph - N/A   Partly Cloudy
3:53 PM 70.0 °F 50.0 °F 49% 30.08 in 10.0 mi ENE 8.1 mph - N/A   Overcast
4:53 PM 70.0 °F 50.0 °F 49% 30.06 in 10.0 mi ENE 10.4 mph - N/A   Mostly Cloudy
5:53 PM 70.0 °F 50.0 °F 49% 30.04 in 10.0 mi ENE 6.9 mph - N/A   Clear
6:53 PM 68.0 °F 53.1 °F 59% 30.04 in 10.0 mi ENE 4.6 mph - N/A   Scattered Clouds
7:53 PM 68.0 °F 53.1 °F 59% 30.01 in 10.0 mi East 8.1 mph - N/A   Overcast
8:53 PM 66.9 °F 52.0 °F 59% 30.00 in 10.0 mi SE 5.8 mph - N/A   Mostly Cloudy
9:53 PM 63.0 °F 55.0 °F 75% 30.01 in 10.0 mi Calm Calm - 0.02 in Rain Light Rain
10:53 PM 60.1 °F 55.9 °F 86% 30.04 in 10.0 mi NNW 9.2 mph - 0.00 in   Overcast
11:53 PM 59.0 °F 57.0 °F 93% 30.04 in 6.0 mi North 8.1 mph - 0.02 in Rain Light Rain